Location: Newark
(56.0692°N, 115.8617°E)
Time: 07:05:11
(UTC+00:00)

Tiros 1 despin weight - All Passes

Search period start: 26 May 2020 00:00
Search period end: 05 June 2020 00:00
Orbit: 594 x 642 km, 48.2° (Epoch: 24 May)

Date Brightness Start Highest point End Pass type
(mag) Time Alt. Az. Time Alt. Az. Time Alt. Az.
26 May - 04:14:25 10° SSE 04:15:35 11° SE 04:16:44 10° SE daylight
26 May - 05:52:22 10° SW 05:56:03 24° SSE 05:59:40 10° ESE daylight
26 May - 07:32:54 10° WSW 07:36:50 30° S 07:40:44 10° ESE daylight
26 May - 09:14:17 10° WSW 09:17:33 20° SSW 09:20:48 10° SSE daylight
27 May - 04:28:48 10° S 04:31:37 16° SSE 04:34:23 10° ESE daylight
27 May - 06:08:21 10° SW 06:12:14 28° S 06:16:05 10° ESE daylight
27 May - 07:49:13 10° WSW 07:53:04 28° S 07:56:51 10° SE daylight
27 May - 09:31:09 10° WSW 09:33:38 15° SSW 09:36:07 10° S daylight
28 May - 04:44:14 10° SSW 04:47:43 22° SSE 04:51:09 10° ESE daylight
28 May - 06:24:29 10° WSW 06:28:28 30° S 06:32:24 10° ESE daylight
28 May - 08:05:41 10° WSW 08:09:15 23° SSW 08:12:47 10° SE daylight
29 May - 03:21:13 10° S 03:23:21 13° SSE 03:25:29 10° ESE daylight
29 May - 05:00:04 10° SW 05:03:53 26° SSE 05:07:40 10° ESE daylight
29 May - 06:40:46 10° WSW 06:44:42 29° S 06:48:36 10° SE daylight
29 May - 08:22:20 10° WSW 08:25:22 18° SSW 08:28:23 10° SSE daylight
30 May - 03:36:14 10° SSW 03:39:24 19° SSE 03:42:33 10° ESE daylight
30 May - 05:16:08 10° SW 05:20:06 30° S 05:24:02 10° ESE daylight
30 May - 06:57:08 10° WSW 07:00:55 26° SSW 07:04:39 10° SE daylight
30 May - 08:39:28 10° WSW 08:41:25 13° SSW 08:43:21 10° S daylight
31 May - 02:14:28 10° SSE 02:15:07 10° SE 02:15:45 10° SE daylight
31 May - 03:51:52 10° SW 03:55:32 24° SSE 03:59:11 10° ESE daylight
31 May - 05:32:20 10° WSW 05:36:20 30° S 05:40:17 10° ESE daylight
31 May - 07:13:39 10° WSW 07:17:05 21° SSW 07:20:28 10° SSE daylight
01 Jun - 02:28:24 10° S 02:31:07 16° SSE 02:33:48 10° ESE daylight
01 Jun - 04:07:48 10° SW 04:11:44 28° S 04:15:36 10° ESE daylight
01 Jun - 05:48:38 10° WSW 05:52:33 28° S 05:56:25 10° SE daylight
01 Jun - 07:30:26 10° WSW 07:33:10 16° SSW 07:35:52 10° S daylight
02 Jun - 02:43:45 10° SSW 02:47:12 21° SSE 02:50:38 10° ESE daylight
02 Jun - 04:23:56 10° WSW 04:27:58 31° S 04:31:56 10° ESE daylight
02 Jun - 06:05:04 10° WSW 06:08:45 24° SSW 06:12:24 10° SE daylight
02 Jun - 07:48:11 10° SW 07:49:10 11° SW 07:50:09 10° SSW daylight
03 Jun - 01:20:53 10° S 01:22:51 13° SE 01:24:48 10° ESE daylight
03 Jun - 02:59:32 10° SW 03:03:22 26° SSE 03:07:10 10° ESE daylight
03 Jun - 04:40:11 10° WSW 04:44:12 30° S 04:48:09 10° SE daylight
03 Jun - 06:21:40 10° WSW 06:24:53 19° SSW 06:28:05 10° SSE daylight
04 Jun - 01:35:47 10° SSW 01:38:53 18° SSE 01:42:00 10° ESE daylight
04 Jun - 03:15:34 10° SW 03:19:35 30° S 03:23:33 10° ESE daylight
04 Jun - 04:56:32 10° WSW 05:00:24 27° SSW 05:04:14 10° SE daylight
04 Jun - 06:38:39 10° WSW 06:40:57 14° SSW 06:43:13 10° S daylight
